Year,Month,Day,Hour,Minute,Value (Times are PST for temperature in C)
2010,02,22,00,00,3.20
2010,02,22,00,01,3.30
2010,02,22,00,02,3.30
2010,02,22,00,03,3.40
2010,02,22,00,04,3.40
2010,02,22,00,05,3.40
2010,02,22,00,06,3.40
2010,02,22,00,07,3.40
2010,02,22,00,08,3.40
2010,02,22,00,09,3.70
2010,02,22,00,10,3.70
2010,02,22,00,11,3.70
2010,02,22,00,12,3.80
2010,02,22,00,13,3.80
2010,02,22,00,14,3.80
2010,02,22,00,15,3.80
2010,02,22,00,16,3.80
2010,02,22,00,17,3.80
2010,02,22,00,18,3.80
2010,02,22,00,19,3.80
2010,02,22,00,20,3.80
2010,02,22,00,21,3.70
2010,02,22,00,22,3.70
2010,02,22,00,23,3.70
2010,02,22,00,24,3.60
2010,02,22,00,25,3.60
2010,02,22,00,26,3.50
2010,02,22,00,27,3.50
2010,02,22,00,28,3.40
2010,02,22,00,29,3.40
2010,02,22,00,30,3.40
2010,02,22,00,31,3.30
2010,02,22,00,32,3.30
2010,02,22,00,33,3.30
2010,02,22,00,34,3.30
2010,02,22,00,35,3.30
2010,02,22,00,36,3.30
2010,02,22,00,37,3.30
2010,02,22,00,38,3.40
2010,02,22,00,39,3.40
2010,02,22,00,40,3.40
2010,02,22,00,41,3.50
2010,02,22,00,42,3.50
2010,02,22,00,43,3.50
2010,02,22,00,44,3.50
2010,02,22,00,45,3.40
2010,02,22,00,46,3.40
2010,02,22,00,47,3.40
2010,02,22,00,48,3.40
2010,02,22,00,49,3.30
2010,02,22,00,50,3.30
2010,02,22,00,51,3.30
2010,02,22,00,52,3.30
2010,02,22,00,53,3.30
2010,02,22,00,54,3.30
2010,02,22,00,55,3.30
2010,02,22,00,56,3.30
2010,02,22,00,57,3.30
2010,02,22,00,58,3.30
2010,02,22,00,59,3.30
2010,02,22,01,00,3.30
2010,02,22,01,01,3.30
2010,02,22,01,02,3.30
2010,02,22,01,03,3.30
2010,02,22,01,04,3.20
2010,02,22,01,05,3.20
2010,02,22,01,06,3.20
2010,02,22,01,07,3.10
2010,02,22,01,08,3.00
2010,02,22,01,09,2.90
2010,02,22,01,10,2.90
2010,02,22,01,11,2.80
2010,02,22,01,12,2.80
2010,02,22,01,13,2.70
2010,02,22,01,14,2.70
2010,02,22,01,15,2.70
2010,02,22,01,16,2.70
2010,02,22,01,17,2.80
2010,02,22,01,18,2.80
2010,02,22,01,19,2.80
2010,02,22,01,20,2.70
2010,02,22,01,21,2.70
2010,02,22,01,22,2.60
2010,02,22,01,23,2.50
2010,02,22,01,24,2.50
2010,02,22,01,25,2.50
2010,02,22,01,26,2.50
2010,02,22,01,27,2.60
2010,02,22,01,28,2.60
2010,02,22,01,29,2.60
2010,02,22,01,30,2.70
2010,02,22,01,31,2.70
2010,02,22,01,32,2.70
2010,02,22,01,33,2.60
2010,02,22,01,34,2.60
2010,02,22,01,35,2.50
2010,02,22,01,36,2.50
2010,02,22,01,37,2.40
2010,02,22,01,38,2.30
2010,02,22,01,39,2.30
2010,02,22,01,40,2.30
2010,02,22,01,41,2.20
2010,02,22,01,42,2.20
2010,02,22,01,43,2.10
2010,02,22,01,44,2.10
2010,02,22,01,45,2.00
2010,02,22,01,46,1.90
2010,02,22,01,47,1.90
2010,02,22,01,48,1.80
2010,02,22,01,49,1.80
2010,02,22,01,50,1.80
2010,02,22,01,51,1.70
2010,02,22,01,52,1.60
2010,02,22,01,53,1.60
2010,02,22,01,54,1.50
2010,02,22,01,55,1.50
2010,02,22,01,56,1.40
2010,02,22,01,57,1.40
2010,02,22,01,58,1.30
2010,02,22,01,59,1.30
2010,02,22,02,00,1.30
2010,02,22,02,01,1.30
2010,02,22,02,02,1.30
2010,02,22,02,03,1.30
2010,02,22,02,04,1.30
2010,02,22,02,05,1.30
2010,02,22,02,06,1.30
2010,02,22,02,07,1.30
2010,02,22,02,08,1.20
2010,02,22,02,09,1.20
2010,02,22,02,10,1.20
2010,02,22,02,11,1.10
2010,02,22,02,12,1.10
2010,02,22,02,13,1.10
2010,02,22,02,14,1.10
2010,02,22,02,15,1.10
2010,02,22,02,16,1.10
2010,02,22,02,17,1.10
2010,02,22,02,18,1.10
2010,02,22,02,19,1.10
2010,02,22,02,20,1.10
2010,02,22,02,21,1.00
2010,02,22,02,22,1.00
2010,02,22,02,23,1.00
2010,02,22,02,24,0.90
2010,02,22,02,25,0.90
2010,02,22,02,26,0.90
2010,02,22,02,27,0.80
2010,02,22,02,28,0.80
2010,02,22,02,29,0.80
2010,02,22,02,30,0.70
2010,02,22,02,31,0.70
2010,02,22,02,32,0.60
2010,02,22,02,33,0.60
2010,02,22,02,34,0.60
2010,02,22,02,35,0.60
2010,02,22,02,36,0.50
2010,02,22,02,37,0.50
2010,02,22,02,38,0.50
2010,02,22,02,39,0.50
2010,02,22,02,40,0.50
2010,02,22,02,41,0.50
2010,02,22,02,42,0.50
2010,02,22,02,43,0.50
2010,02,22,02,44,0.50
2010,02,22,02,45,0.50
2010,02,22,02,46,0.60
2010,02,22,02,47,0.60
2010,02,22,02,48,0.70
2010,02,22,02,49,0.70
2010,02,22,02,50,0.70
2010,02,22,02,51,0.70
2010,02,22,02,52,0.70
2010,02,22,02,53,0.70
2010,02,22,02,54,0.70
2010,02,22,02,55,0.70
2010,02,22,02,56,0.70
2010,02,22,02,57,0.70
2010,02,22,02,58,0.70
2010,02,22,02,59,0.70
2010,02,22,03,00,0.70
2010,02,22,03,01,0.70
2010,02,22,03,02,0.70
2010,02,22,03,03,0.70
2010,02,22,03,04,0.60
2010,02,22,03,05,0.60
2010,02,22,03,06,0.60
2010,02,22,03,07,0.60
2010,02,22,03,08,0.50
2010,02,22,03,09,0.50
2010,02,22,03,10,0.40
2010,02,22,03,11,0.40
2010,02,22,03,12,0.40
2010,02,22,03,13,0.40
2010,02,22,03,14,0.40
2010,02,22,03,15,0.30
2010,02,22,03,16,0.30
2010,02,22,03,17,0.30
2010,02,22,03,18,0.30
2010,02,22,03,19,0.20
2010,02,22,03,20,0.20
2010,02,22,03,21,0.20
2010,02,22,03,22,0.20
2010,02,22,03,23,0.10
2010,02,22,03,24,0.10
2010,02,22,03,25,0.10
2010,02,22,03,26,0.10
2010,02,22,03,27,0.10
2010,02,22,03,28,0.10
2010,02,22,03,29,0.00
2010,02,22,03,30,0.00
2010,02,22,03,31,0.00
2010,02,22,03,32,0.00
2010,02,22,03,33,-0.10
2010,02,22,03,34,-0.10
2010,02,22,03,35,-0.10
2010,02,22,03,36,-0.10
2010,02,22,03,37,-0.10
2010,02,22,03,38,-0.10
2010,02,22,03,39,-0.10
2010,02,22,03,40,-0.10
2010,02,22,03,41,-0.10
2010,02,22,03,42,-0.10
2010,02,22,03,43,-0.10
2010,02,22,03,44,-0.10
2010,02,22,03,45,-0.20
2010,02,22,03,46,-0.20
2010,02,22,03,47,-0.20
2010,02,22,03,48,-0.20
2010,02,22,03,49,-0.20
2010,02,22,03,50,-0.20
2010,02,22,03,51,-0.30
2010,02,22,03,52,-0.30
2010,02,22,03,53,-0.30
2010,02,22,03,54,-0.30
2010,02,22,03,55,-0.30
2010,02,22,03,56,-0.30
2010,02,22,03,57,-0.40
2010,02,22,03,58,-0.40
2010,02,22,03,59,-0.40
2010,02,22,04,00,-0.40
2010,02,22,04,01,-0.40
2010,02,22,04,02,-0.40
2010,02,22,04,03,-0.40
2010,02,22,04,04,-0.40
2010,02,22,04,05,-0.40
2010,02,22,04,17,-0.40
2010,02,22,04,18,-0.40
2010,02,22,04,19,-0.40
2010,02,22,04,20,-0.40
2010,02,22,04,21,-0.40
2010,02,22,04,22,-0.40
2010,02,22,04,23,-0.40
2010,02,22,04,24,-0.40
2010,02,22,04,25,-0.40
2010,02,22,04,26,-0.40
2010,02,22,04,27,-0.40
2010,02,22,04,28,-0.40
2010,02,22,04,29,-0.40
2010,02,22,04,30,-0.40
2010,02,22,04,31,-0.40
2010,02,22,04,32,-0.40
2010,02,22,04,33,-0.40
2010,02,22,04,34,-0.40
2010,02,22,04,35,-0.40
2010,02,22,04,36,-0.40
2010,02,22,04,37,-0.40
2010,02,22,04,38,-0.40
2010,02,22,04,39,-0.40
2010,02,22,04,40,-0.40
2010,02,22,04,41,-0.40
2010,02,22,04,42,-0.40
2010,02,22,04,43,-0.50
2010,02,22,04,44,-0.50
2010,02,22,04,45,-0.60
2010,02,22,04,46,-0.60
2010,02,22,04,47,-0.60
2010,02,22,04,48,-0.60
2010,02,22,04,49,-0.60
2010,02,22,04,50,-0.60
2010,02,22,04,51,-0.60
2010,02,22,04,52,-0.60
2010,02,22,04,53,-0.60
2010,02,22,04,54,-0.60
2010,02,22,04,55,-0.60
2010,02,22,04,56,-0.60
2010,02,22,04,57,-0.70
2010,02,22,04,58,-0.70
2010,02,22,04,59,-0.70
2010,02,22,05,00,-0.70
2010,02,22,05,01,-0.70
2010,02,22,05,02,-0.80
2010,02,22,05,03,-0.80
2010,02,22,05,04,-0.80
2010,02,22,05,05,-0.80
2010,02,22,05,06,-0.80
2010,02,22,05,07,-0.80
2010,02,22,05,08,-0.90
2010,02,22,05,09,-0.90
2010,02,22,05,10,-0.90
2010,02,22,05,11,-0.90
2010,02,22,05,12,-0.90
2010,02,22,05,13,-0.90
2010,02,22,05,14,-0.90
2010,02,22,05,15,-0.90
2010,02,22,05,16,-0.90
2010,02,22,05,17,-0.90
2010,02,22,05,18,-0.90
2010,02,22,05,19,-0.90
2010,02,22,05,20,-0.90
2010,02,22,05,21,-0.90
2010,02,22,05,22,-0.90
2010,02,22,05,23,-0.90
2010,02,22,05,24,-0.90
2010,02,22,05,25,-0.90
2010,02,22,05,26,-0.90
2010,02,22,07,42,-0.50
2010,02,22,07,43,-0.50
2010,02,22,07,44,-0.50
2010,02,22,07,45,-0.50
2010,02,22,07,46,-0.50
2010,02,22,07,47,-0.50
2010,02,22,07,48,-0.40
2010,02,22,07,49,-0.40
2010,02,22,07,50,-0.40
2010,02,22,07,51,-0.40
2010,02,22,07,52,-0.30
2010,02,22,07,53,-0.30
2010,02,22,07,54,-0.30
2010,02,22,07,55,-0.20
2010,02,22,07,56,-0.20
2010,02,22,07,57,-0.20
2010,02,22,07,58,-0.10
2010,02,22,07,59,-0.10
2010,02,22,08,00,0.00
2010,02,22,08,01,0.00
2010,02,22,08,02,0.10
2010,02,22,08,03,0.10
2010,02,22,08,04,0.10
2010,02,22,08,05,0.20
2010,02,22,08,06,0.20
2010,02,22,08,07,0.20
2010,02,22,08,08,0.20
2010,02,22,08,09,0.30
2010,02,22,08,10,0.30
2010,02,22,08,11,0.30
2010,02,22,08,12,0.40
2010,02,22,08,13,0.40
2010,02,22,08,14,0.50
2010,02,22,08,15,0.50
2010,02,22,08,16,0.60
2010,02,22,08,17,0.60
2010,02,22,08,18,0.60
2010,02,22,08,19,0.70
2010,02,22,08,20,0.70
2010,02,22,08,21,0.80
2010,02,22,08,22,0.90
2010,02,22,08,23,0.90
2010,02,22,08,24,1.00
2010,02,22,08,25,1.10
2010,02,22,08,26,1.20
2010,02,22,08,27,1.30
2010,02,22,08,28,1.30
2010,02,22,08,29,1.40
2010,02,22,08,30,1.50
2010,02,22,08,31,1.60
2010,02,22,08,32,1.80
2010,02,22,08,33,1.90
2010,02,22,08,34,2.00
2010,02,22,08,35,2.20
2010,02,22,08,36,2.30
2010,02,22,08,37,2.30
2010,02,22,08,38,2.40
2010,02,22,08,39,2.50
2010,02,22,08,40,2.50
2010,02,22,08,41,2.60
2010,02,22,08,42,2.70
2010,02,22,08,43,2.80
2010,02,22,08,44,2.90
2010,02,22,08,45,3.00
2010,02,22,08,46,3.20
2010,02,22,08,47,3.30
2010,02,22,08,48,3.50
2010,02,22,08,49,3.60
2010,02,22,08,50,3.80
2010,02,22,08,51,3.90
2010,02,22,08,52,4.00
2010,02,22,08,53,4.20
2010,02,22,08,54,4.30
2010,02,22,08,55,4.50
2010,02,22,08,56,4.60
2010,02,22,08,57,4.70
2010,02,22,08,58,4.80
2010,02,22,08,59,4.90
2010,02,22,09,00,4.90
2010,02,22,09,01,5.00
2010,02,22,09,02,5.00
2010,02,22,09,03,5.00
2010,02,22,09,04,5.00
2010,02,22,09,05,5.10
2010,02,22,09,06,5.10
2010,02,22,09,07,5.10
2010,02,22,09,08,5.10
2010,02,22,09,09,5.10
2010,02,22,09,10,5.10
2010,02,22,09,11,5.10
2010,02,22,09,12,5.10
2010,02,22,09,13,5.20
2010,02,22,09,14,5.20
2010,02,22,09,15,5.20
2010,02,22,09,16,5.20
2010,02,22,09,17,5.20
2010,02,22,09,18,5.30
2010,02,22,09,19,5.30
2010,02,22,09,20,5.30
2010,02,22,09,21,5.30
2010,02,22,09,22,5.30
2010,02,22,09,23,5.30
2010,02,22,09,24,5.30
2010,02,22,09,25,5.30
2010,02,22,09,26,5.40
2010,02,22,09,27,5.40
2010,02,22,09,28,5.40
2010,02,22,09,29,5.40
2010,02,22,09,30,5.40
2010,02,22,09,31,5.40
2010,02,22,09,32,5.40
2010,02,22,09,33,5.50
2010,02,22,09,34,5.50
2010,02,22,09,35,5.50
2010,02,22,09,36,5.50
2010,02,22,09,37,5.50
2010,02,22,09,38,5.50
2010,02,22,09,39,5.60
2010,02,22,09,40,5.60
2010,02,22,09,41,5.60
2010,02,22,09,42,5.60
2010,02,22,09,43,5.60
2010,02,22,09,44,5.60
2010,02,22,09,45,5.60
2010,02,22,09,46,5.60
2010,02,22,09,47,5.60
2010,02,22,09,48,5.60
2010,02,22,09,49,5.70
2010,02,22,09,50,5.70
2010,02,22,09,51,5.70
2010,02,22,09,52,5.70
2010,02,22,09,53,5.80
2010,02,22,09,54,5.80
2010,02,22,09,55,5.80
2010,02,22,09,56,5.80
2010,02,22,09,57,5.90
2010,02,22,09,58,5.90
2010,02,22,09,59,6.00
2010,02,22,10,00,6.00
2010,02,22,10,01,6.10
2010,02,22,10,02,6.20
2010,02,22,10,03,6.20
2010,02,22,10,04,6.20
2010,02,22,10,05,6.30
2010,02,22,10,06,6.30
2010,02,22,10,07,6.30
2010,02,22,10,08,6.30
2010,02,22,10,09,6.40
2010,02,22,10,10,6.40
2010,02,22,10,11,6.50
2010,02,22,10,12,6.60
2010,02,22,10,13,6.70
2010,02,22,10,14,6.80
2010,02,22,10,15,6.80
2010,02,22,10,16,6.90
2010,02,22,10,17,6.90
2010,02,22,10,18,7.00
2010,02,22,10,19,7.00
2010,02,22,10,20,7.10
2010,02,22,10,21,7.10
2010,02,22,10,22,7.10
2010,02,22,10,23,7.10
2010,02,22,10,24,7.00
2010,02,22,10,25,7.00
2010,02,22,10,26,7.00
2010,02,22,10,27,7.00
2010,02,22,10,28,7.00
2010,02,22,10,29,7.10
2010,02,22,10,30,7.10
2010,02,22,10,31,7.10
2010,02,22,10,32,7.20
2010,02,22,10,33,7.20
2010,02,22,10,34,7.20
2010,02,22,10,35,7.20
2010,02,22,10,36,7.20
2010,02,22,10,37,7.20
2010,02,22,10,38,7.20
2010,02,22,10,39,7.30
2010,02,22,10,40,7.30
2010,02,22,10,41,7.30
2010,02,22,10,42,7.40
2010,02,22,10,43,7.40
2010,02,22,10,44,7.50
2010,02,22,10,45,7.60
2010,02,22,10,46,7.60
2010,02,22,10,47,7.60
2010,02,22,10,48,7.60
2010,02,22,10,49,7.70
2010,02,22,10,50,7.70
2010,02,22,10,51,7.80
2010,02,22,10,52,7.80
2010,02,22,10,53,7.90
2010,02,22,10,54,7.90
2010,02,22,10,55,7.90
2010,02,22,10,56,7.90
2010,02,22,10,57,7.80
2010,02,22,10,58,7.90
2010,02,22,10,59,7.90
2010,02,22,11,00,7.90
2010,02,22,11,01,7.90
2010,02,22,11,02,8.00
2010,02,22,11,03,8.00
2010,02,22,11,04,8.00
2010,02,22,11,05,7.90
2010,02,22,11,06,7.90
2010,02,22,11,07,7.90
2010,02,22,11,08,7.90
2010,02,22,11,09,7.90
2010,02,22,11,10,7.90
2010,02,22,11,11,7.90
2010,02,22,11,12,8.00
2010,02,22,11,13,8.00
2010,02,22,11,14,8.10
2010,02,22,11,15,8.10
2010,02,22,11,16,8.00
2010,02,22,11,17,8.00
2010,02,22,11,18,7.90
2010,02,22,11,19,7.90
2010,02,22,11,20,7.80
2010,02,22,11,21,7.80
2010,02,22,11,22,7.80
2010,02,22,11,23,7.80
2010,02,22,11,24,7.80
2010,02,22,11,25,7.90
2010,02,22,11,26,7.90
2010,02,22,11,27,7.90
2010,02,22,11,28,7.90
2010,02,22,11,29,7.90
2010,02,22,11,30,7.80
2010,02,22,11,31,7.80
2010,02,22,11,32,7.80
2010,02,22,11,33,7.80
2010,02,22,11,34,7.80
2010,02,22,11,35,7.80
2010,02,22,11,36,7.90
2010,02,22,11,37,7.80
2010,02,22,11,38,7.80
2010,02,22,11,39,7.70
2010,02,22,11,40,7.70
2010,02,22,11,41,7.70
2010,02,22,11,42,7.70
2010,02,22,11,43,7.80
2010,02,22,11,44,7.80
2010,02,22,11,45,7.80
2010,02,22,11,46,7.80
2010,02,22,11,47,7.90
2010,02,22,11,48,7.90
2010,02,22,11,49,8.00
2010,02,22,11,50,8.00
2010,02,22,11,51,8.00
2010,02,22,11,52,8.10
2010,02,22,11,53,8.10
2010,02,22,11,54,8.00
2010,02,22,11,55,8.00
2010,02,22,11,56,8.00
2010,02,22,11,57,8.00
2010,02,22,11,58,8.10
2010,02,22,11,59,8.20
2010,02,22,12,00,8.20
2010,02,22,12,01,8.20
2010,02,22,12,02,8.10
2010,02,22,12,03,8.20
2010,02,22,12,04,8.20
2010,02,22,12,05,8.20
2010,02,22,12,06,8.20
2010,02,22,12,07,8.30
2010,02,22,12,08,8.30
2010,02,22,12,09,8.40
2010,02,22,12,10,8.50
2010,02,22,12,11,8.50
2010,02,22,12,12,8.60
2010,02,22,12,13,8.60
2010,02,22,12,14,8.70
2010,02,22,12,15,8.80
2010,02,22,12,16,8.80
2010,02,22,12,17,8.70
2010,02,22,12,18,8.70
2010,02,22,12,19,8.70
2010,02,22,12,20,8.70
2010,02,22,12,21,8.70
2010,02,22,12,22,8.70
2010,02,22,12,23,8.70
2010,02,22,12,24,8.70
2010,02,22,12,25,8.70
2010,02,22,12,26,8.70
2010,02,22,12,27,8.70
2010,02,22,12,28,8.70
2010,02,22,12,29,8.70
2010,02,22,12,30,8.70
2010,02,22,12,31,8.70
2010,02,22,12,32,8.70
2010,02,22,12,33,8.70
2010,02,22,12,34,8.70
2010,02,22,12,35,8.80
2010,02,22,12,36,8.80
2010,02,22,12,37,8.90
2010,02,22,12,38,9.00
2010,02,22,12,39,9.00
2010,02,22,12,40,9.10
2010,02,22,12,41,9.10
2010,02,22,12,42,9.10
2010,02,22,12,43,9.10
2010,02,22,12,44,9.10
2010,02,22,12,45,9.10
2010,02,22,12,46,9.20
2010,02,22,12,47,9.20
2010,02,22,12,48,9.30
2010,02,22,12,49,9.30
2010,02,22,12,50,9.30
2010,02,22,12,51,9.40
2010,02,22,12,52,9.40
2010,02,22,12,53,9.40
2010,02,22,12,54,9.40
2010,02,22,12,55,9.30
2010,02,22,12,56,9.30
2010,02,22,12,57,9.30
2010,02,22,12,58,9.30
2010,02,22,12,59,9.20
2010,02,22,13,00,9.20
2010,02,22,13,01,9.20
2010,02,22,13,02,9.20
2010,02,22,13,03,9.20
2010,02,22,13,04,9.20
2010,02,22,13,05,9.20
2010,02,22,13,06,9.20
2010,02,22,13,07,9.30
2010,02,22,13,08,9.30
2010,02,22,13,09,9.50
2010,02,22,13,10,9.50
2010,02,22,13,11,9.60
2010,02,22,13,12,9.60
2010,02,22,13,13,9.60
2010,02,22,13,14,9.60
2010,02,22,13,15,9.60
2010,02,22,13,16,9.60
2010,02,22,13,17,9.60
2010,02,22,13,18,9.60
2010,02,22,13,19,9.70
2010,02,22,13,20,9.70
2010,02,22,13,21,9.70
2010,02,22,13,22,9.70
2010,02,22,13,23,9.70
2010,02,22,13,24,9.80
2010,02,22,13,25,9.80
2010,02,22,13,26,9.90
2010,02,22,13,27,9.90
2010,02,22,13,28,9.80
2010,02,22,13,29,9.80
2010,02,22,13,30,9.80
2010,02,22,13,31,9.80
2010,02,22,13,32,9.80
2010,02,22,13,33,9.80
2010,02,22,13,34,9.80
2010,02,22,13,35,9.80
2010,02,22,13,36,9.90
2010,02,22,13,37,9.90
2010,02,22,13,38,9.90
2010,02,22,13,39,10.00
2010,02,22,13,40,10.00
2010,02,22,13,41,10.00
2010,02,22,13,42,10.10
2010,02,22,13,43,10.10
2010,02,22,13,44,10.10
2010,02,22,13,45,10.10
2010,02,22,13,46,10.00
2010,02,22,13,47,10.00
2010,02,22,13,48,9.90
2010,02,22,13,49,9.80
2010,02,22,13,50,9.80
2010,02,22,13,51,9.80
2010,02,22,13,52,9.90
2010,02,22,13,53,9.90
2010,02,22,13,54,10.00
2010,02,22,13,55,9.90
2010,02,22,13,56,9.90
2010,02,22,13,57,9.90
2010,02,22,13,58,10.00
2010,02,22,13,59,10.10
2010,02,22,14,00,10.10
2010,02,22,14,01,10.10
2010,02,22,14,02,10.10
2010,02,22,14,03,10.20
2010,02,22,14,04,10.10
2010,02,22,14,05,10.10
2010,02,22,14,06,10.10
2010,02,22,14,07,10.10
2010,02,22,14,08,10.10
2010,02,22,14,09,10.10
2010,02,22,14,10,10.20
2010,02,22,14,11,10.30
2010,02,22,14,12,10.30
2010,02,22,14,13,10.30
2010,02,22,14,14,10.40
2010,02,22,14,15,10.40
2010,02,22,14,16,10.50
2010,02,22,14,17,10.60
2010,02,22,14,18,10.60
2010,02,22,14,19,10.60
2010,02,22,14,20,10.60
2010,02,22,14,21,10.60
2010,02,22,14,22,10.50
2010,02,22,14,23,10.50
2010,02,22,14,24,10.50
2010,02,22,14,25,10.50
2010,02,22,14,26,10.60
2010,02,22,14,27,10.60
2010,02,22,14,28,10.60
2010,02,22,14,29,10.60
2010,02,22,14,30,10.70
2010,02,22,14,31,10.70
2010,02,22,14,32,10.70
2010,02,22,14,33,10.70
2010,02,22,14,34,10.70
2010,02,22,14,35,10.70
2010,02,22,14,36,10.70
2010,02,22,14,37,10.60
2010,02,22,14,38,10.60
2010,02,22,14,39,10.60
2010,02,22,14,40,10.70
2010,02,22,14,41,10.70
2010,02,22,14,42,10.60
2010,02,22,14,43,10.60
2010,02,22,14,44,10.60
2010,02,22,14,45,10.60
2010,02,22,14,46,10.60
2010,02,22,14,47,10.60
2010,02,22,14,48,10.50
2010,02,22,14,49,10.50
2010,02,22,14,50,10.40
2010,02,22,14,51,10.40
2010,02,22,14,52,10.40
2010,02,22,14,53,10.40
2010,02,22,14,54,10.40
2010,02,22,14,55,10.40
2010,02,22,14,56,10.40
2010,02,22,14,57,10.40
2010,02,22,14,58,10.50
2010,02,22,14,59,10.50
2010,02,22,15,00,10.50
2010,02,22,15,01,10.60
2010,02,22,15,02,10.60
2010,02,22,15,03,10.60
2010,02,22,15,04,10.60
2010,02,22,15,05,10.70
2010,02,22,15,06,10.70
2010,02,22,15,07,10.70
2010,02,22,15,08,10.70
2010,02,22,15,09,10.70
2010,02,22,15,10,10.70
2010,02,22,15,11,10.80
2010,02,22,15,12,10.80
2010,02,22,15,13,10.80
2010,02,22,15,14,10.80
2010,02,22,15,15,10.80
2010,02,22,15,16,10.80
2010,02,22,15,17,10.80
2010,02,22,15,18,10.80
2010,02,22,15,19,10.80
2010,02,22,15,20,10.80
2010,02,22,15,21,10.80
2010,02,22,15,22,10.80
2010,02,22,15,23,10.80
2010,02,22,15,24,10.80
2010,02,22,15,25,10.90
2010,02,22,15,26,10.90
2010,02,22,15,27,10.90
2010,02,22,15,28,10.90
2010,02,22,15,29,10.90
2010,02,22,15,30,10.80
2010,02,22,15,31,10.80
2010,02,22,15,32,10.80
2010,02,22,15,33,10.80
2010,02,22,15,34,10.80
2010,02,22,15,35,10.80
2010,02,22,15,36,10.80
2010,02,22,15,37,10.80
2010,02,22,15,38,10.70
2010,02,22,15,39,10.70
2010,02,22,15,40,10.70
2010,02,22,15,41,10.70
2010,02,22,15,42,10.70
2010,02,22,15,43,10.70
2010,02,22,15,44,10.70
2010,02,22,15,45,10.70
2010,02,22,15,46,10.70
2010,02,22,15,47,10.70
2010,02,22,15,48,10.70
2010,02,22,15,49,10.70
2010,02,22,15,50,10.70
2010,02,22,15,51,10.70
2010,02,22,15,52,10.80
2010,02,22,15,53,10.80
2010,02,22,15,54,10.80
2010,02,22,15,55,10.80
2010,02,22,15,56,10.80
2010,02,22,15,57,10.80
2010,02,22,15,58,10.80
2010,02,22,15,59,10.80
2010,02,22,16,00,10.80
2010,02,22,16,01,10.80
2010,02,22,16,02,10.80
2010,02,22,16,03,10.80
2010,02,22,16,04,10.80
2010,02,22,16,05,10.90
2010,02,22,16,06,10.90
2010,02,22,16,07,10.90
2010,02,22,16,08,10.80
2010,02,22,16,09,10.80
2010,02,22,16,10,10.80
2010,02,22,16,11,10.80
2010,02,22,16,12,10.80
2010,02,22,16,13,10.80
2010,02,22,16,14,10.80
2010,02,22,16,15,10.80
2010,02,22,16,16,10.80
2010,02,22,16,17,10.80
2010,02,22,16,18,10.80
2010,02,22,16,19,10.80
2010,02,22,16,20,10.70
2010,02,22,16,21,10.70
2010,02,22,16,22,10.60
2010,02,22,16,23,10.60
2010,02,22,16,24,10.60
2010,02,22,16,25,10.50
2010,02,22,16,26,10.50
2010,02,22,16,27,10.50
2010,02,22,16,28,10.50
2010,02,22,16,29,10.50
2010,02,22,16,30,10.50
2010,02,22,16,31,10.50
2010,02,22,16,32,10.50
2010,02,22,16,33,10.50
2010,02,22,16,34,10.50
2010,02,22,16,35,10.40
2010,02,22,16,36,10.50
2010,02,22,16,37,10.50
2010,02,22,16,38,10.50
2010,02,22,16,39,10.50
2010,02,22,16,40,10.50
2010,02,22,16,41,10.40
2010,02,22,16,42,10.40
2010,02,22,16,43,10.40
2010,02,22,16,44,10.40
2010,02,22,16,45,10.30
2010,02,22,16,46,10.30
2010,02,22,16,47,10.30
2010,02,22,16,48,10.20
2010,02,22,16,49,10.20
2010,02,22,16,50,10.20
2010,02,22,16,51,10.10
2010,02,22,16,52,10.10
2010,02,22,16,53,10.00
2010,02,22,16,54,9.90
2010,02,22,16,55,9.90
2010,02,22,16,56,9.80
2010,02,22,16,57,9.80
2010,02,22,16,58,9.70
2010,02,22,16,59,9.70
2010,02,22,17,00,9.70
2010,02,22,17,01,9.70
2010,02,22,17,02,9.70
2010,02,22,17,03,9.70
2010,02,22,17,04,9.70
2010,02,22,17,05,9.70
2010,02,22,17,06,9.70
2010,02,22,17,07,9.70
2010,02,22,17,08,9.70
2010,02,22,17,09,9.70
2010,02,22,17,10,9.70
2010,02,22,17,11,9.70
2010,02,22,17,12,9.70
2010,02,22,17,13,9.70
2010,02,22,17,14,9.70
2010,02,22,17,15,9.70
2010,02,22,17,16,9.60
2010,02,22,17,17,9.60
2010,02,22,17,18,9.60
2010,02,22,17,19,9.60
2010,02,22,17,20,9.50
2010,02,22,17,21,9.50
2010,02,22,17,22,9.40
2010,02,22,17,23,9.40
2010,02,22,17,24,9.40
2010,02,22,17,25,9.30
2010,02,22,17,26,9.30
2010,02,22,17,27,9.20
2010,02,22,17,28,9.20
2010,02,22,17,29,9.20
2010,02,22,17,30,9.10
2010,02,22,17,31,9.10
2010,02,22,17,32,9.10
2010,02,22,17,33,9.10
2010,02,22,17,34,9.00
2010,02,22,17,35,9.00
2010,02,22,17,36,8.90
2010,02,22,17,37,8.90
2010,02,22,17,38,8.80
2010,02,22,17,39,8.80
2010,02,22,17,40,8.80
2010,02,22,17,41,8.80
2010,02,22,17,42,8.80
2010,02,22,17,43,8.70
2010,02,22,17,44,8.70
2010,02,22,17,45,8.70
2010,02,22,17,46,8.70
2010,02,22,17,47,8.70
2010,02,22,17,48,8.60
2010,02,22,17,49,8.60
2010,02,22,17,50,8.60
2010,02,22,17,51,8.60
2010,02,22,17,52,8.50
2010,02,22,17,53,8.50
2010,02,22,17,54,8.50
2010,02,22,17,55,8.40
2010,02,22,17,56,8.40
2010,02,22,17,57,8.40
2010,02,22,17,58,8.40
2010,02,22,17,59,8.30
2010,02,22,18,00,8.30
2010,02,22,18,01,8.20
2010,02,22,18,02,8.20
2010,02,22,18,03,8.20
2010,02,22,18,04,8.10
2010,02,22,18,05,8.10
2010,02,22,18,06,8.00
2010,02,22,18,07,8.00
2010,02,22,18,08,7.90
2010,02,22,18,09,7.90
2010,02,22,18,10,7.90
2010,02,22,18,11,7.90
2010,02,22,18,12,7.80
2010,02,22,18,13,7.80
2010,02,22,18,14,7.80
2010,02,22,18,15,7.70
2010,02,22,18,16,7.70
2010,02,22,18,17,7.70
2010,02,22,18,18,7.70
2010,02,22,18,19,7.60
2010,02,22,18,20,7.60
2010,02,22,18,21,7.60
2010,02,22,18,22,7.50
2010,02,22,18,23,7.50
2010,02,22,18,24,7.40
2010,02,22,18,25,7.40
2010,02,22,18,26,7.40
2010,02,22,18,27,7.30
2010,02,22,18,28,7.30
2010,02,22,18,29,7.20
2010,02,22,18,30,7.20
2010,02,22,18,31,7.20
2010,02,22,18,32,7.20
2010,02,22,18,33,7.10
2010,02,22,18,34,7.10
2010,02,22,18,35,7.00
2010,02,22,18,36,7.00
2010,02,22,18,37,6.90
2010,02,22,18,38,6.90
2010,02,22,18,39,6.90
2010,02,22,18,40,6.80
2010,02,22,18,41,6.80
2010,02,22,18,42,6.80
2010,02,22,18,43,6.80
2010,02,22,18,44,6.80
2010,02,22,18,45,6.80
2010,02,22,18,46,6.70
2010,02,22,18,47,6.70
2010,02,22,18,48,6.70
2010,02,22,18,49,6.70
2010,02,22,18,50,6.60
2010,02,22,18,51,6.50
2010,02,22,18,52,6.50
2010,02,22,18,53,6.50
2010,02,22,18,54,6.40
2010,02,22,18,55,6.40
2010,02,22,18,56,6.30
2010,02,22,18,57,6.30
2010,02,22,18,58,6.20
2010,02,22,18,59,6.20
2010,02,22,19,00,6.20
2010,02,22,19,01,6.20
2010,02,22,19,02,6.10
2010,02,22,19,03,6.10
2010,02,22,19,04,6.10
2010,02,22,19,05,6.00
2010,02,22,19,06,5.90
2010,02,22,19,07,5.90
2010,02,22,19,08,5.90
2010,02,22,19,09,5.80
2010,02,22,19,10,5.80
2010,02,22,19,11,5.80
2010,02,22,19,12,5.70
2010,02,22,19,13,5.70
2010,02,22,19,14,5.60
2010,02,22,19,15,5.60
2010,02,22,19,16,5.60
2010,02,22,19,17,5.60
2010,02,22,19,18,5.50
2010,02,22,19,19,5.50
2010,02,22,19,20,5.40
2010,02,22,19,21,5.40
2010,02,22,19,22,5.40
2010,02,22,19,23,5.30
2010,02,22,19,24,5.30
2010,02,22,19,25,5.30
2010,02,22,19,26,5.30
2010,02,22,19,27,5.20
2010,02,22,19,28,5.20
2010,02,22,19,29,5.20
2010,02,22,19,30,5.20
2010,02,22,19,31,5.10
2010,02,22,19,32,5.10
2010,02,22,19,33,5.10
2010,02,22,19,34,5.10
2010,02,22,19,35,5.00
2010,02,22,19,36,5.00
2010,02,22,19,37,5.00
2010,02,22,19,38,4.90
2010,02,22,19,39,4.90
2010,02,22,19,40,4.90
2010,02,22,19,41,4.80
2010,02,22,19,42,4.80
2010,02,22,19,43,4.80
2010,02,22,19,44,4.80
2010,02,22,19,45,4.70
2010,02,22,19,46,4.70
2010,02,22,19,47,4.60
2010,02,22,19,48,4.60
2010,02,22,19,49,4.50
2010,02,22,19,50,4.50
2010,02,22,19,51,4.40
2010,02,22,19,52,4.40
2010,02,22,19,53,4.40
2010,02,22,19,54,4.40
2010,02,22,19,55,4.40
2010,02,22,19,56,4.40
2010,02,22,19,57,4.30
2010,02,22,19,58,4.30
2010,02,22,19,59,4.30
2010,02,22,20,00,4.30
2010,02,22,20,01,4.30
2010,02,22,20,02,4.30
2010,02,22,20,03,4.30
2010,02,22,20,04,4.30
2010,02,22,20,05,4.20
2010,02,22,20,06,4.20
2010,02,22,20,07,4.20
2010,02,22,20,08,4.20
2010,02,22,20,09,4.20
2010,02,22,20,10,4.20
2010,02,22,20,11,4.20
2010,02,22,20,12,4.20
2010,02,22,20,13,4.20
2010,02,22,20,14,4.20
2010,02,22,20,15,4.20
2010,02,22,20,16,4.20
2010,02,22,20,17,4.20
2010,02,22,20,18,4.20